Regional Weather Roundup
Issued by NWS Cleveland, OH

Home | Current Version | Previous Version | Graphics & Text | Print | Product List | Glossary On
Versions: 1 2 3 4 5 6 7 8 9 10 11 12 13 14 15 16 17 18 19 20 21 22 23 24 25 26 27 28 29 30 31 32 33 34 35 36 37 38 39 40 41 42 43 44 45 46 47 48 49 50
000
ASUS41 KCLE 290010
RWRCLE
OHIO REGIONAL WEATHER ROUNDUP
NATIONAL WEATHER SERVICE WILMINGTON, OH
700 PM EST SUN DEC 28 2014

NOTE: "FAIR" INDICATES FEW OR NO CLOUDS BELOW 12,000 FEET WITH NO
SIGNIFICANT WEATHER AND/OR OBSTRUCTIONS TO VISIBILITY.

OHZ001>008-015>018-024>027-034-035-043-044-290100-
   NORTHWEST OHIO

CITY           SKY/WX    TMP DP  RH WIND       PRES   REMARKS
DEFIANCE       CLEAR     32  25  75 W3        30.17F
FINDLAY        MOCLDY    32  26  78 W5        30.15S WCI  27
TOLEDO EXPRESS CLEAR     31  24  75 SW3       30.16S
TOLEDO METCALF PTCLDY    31  24  75 W7        30.17S WCI  24
LIMA           CLOUDY    33  27  78 W7        30.16R WCI  27
$$

OHZ009>014-019>023-028>033-038-089-290100-
   NORTHEAST OHIO

CITY           SKY/WX    TMP DP  RH WIND       PRES   REMARKS
CLE-HOPKINS    CLOUDY    35  28  75 W6        30.17R
CLE-LAKEFRONT  CLOUDY    36  30  79 W10       30.14R
CUY CO. ARPT   CLOUDY    36  34  93 W9        30.14R
LORAIN-ELYRIA  CLOUDY    34  28  79 NW6       30.15R WCI  29
ASHTABULA      CLOUDY    34  29  82 W6        30.12S WCI  29
AKRON-CANTON   CLOUDY    34  29  82 NW5       30.12R WCI  30
WOOSTER        CLOUDY    35  31  85 NW6       30.13R
MANSFIELD      CLOUDY    33  29  85 NW5       30.13R WCI  29
YOUNGSTOWN     CLOUDY    33  31  92 CALM      30.10S
$$

OHZ042-051>053-060>062-070>072-077>081-290100-
  SOUTHWEST OHIO

CITY           SKY/WX    TMP DP  RH WIND       PRES   REMARKS
CINC-COVINGTON CLOUDY    35  27  72 NW5       30.18R
CINC-LUNKEN    CLOUDY    36  30  79 W7        30.20R
HAMILTON       CLOUDY    35  30  82 W5        30.20R
DAYTON         CLOUDY    33  28  81 NW6       30.18R WCI  28
WRIGHT-PAT AFB CLOUDY    34  29  82 SW6       30.17R WCI  29
DAYTON GENERAL CLOUDY    34  29  82 N6        30.16S WCI  29
WILMINGTON     CLOUDY    35  28  75 NW5       30.16R
$$

OHZ036-037-039>041-045>050-054>059-063>069-073>076-082>088-290100-
  CENTRAL AND SOUTHEAST OHIO

CITY           SKY/WX    TMP DP  RH WIND       PRES   REMARKS
COLUMBUS       CLOUDY    36  29  75 NW6       30.14S
OSU AIRPORT    CLOUDY    36  28  73 NW7       30.14F
BOLTON FIELD   CLOUDY    36  30  80 NW6       30.15S
RICKENBACK AFB CLOUDY    36  30  80 NW6       30.15S
NEWARK         CLOUDY    37  30  75 NW3       30.14R
MARION         CLOUDY    33  28  81 NW6       30.15R WCI  28
LANCASTER      CLOUDY    37  31  78 CALM      30.15R
ZANESVILLE     CLOUDY    36  29  75 W5        30.14R
NEW PHILLY     CLOUDY    37  29  72 NW5       30.14R
$$



USA.gov is the U.S. government's official web portal to all federal, state and local government web resources and services.